Tracking 30970 objects as of 3-Jul-2025
HD Live streaming from Space Station
objects crossing your sky now

FENGYUN 1C DEB

Track FENGYUN 1C DEB now!
10-day predictions


NORAD ID: 33730
Int'l Code: 1999-025DHT
Perigee: 668.3 km
Apogee: 730.3 km
Inclination: 99.1 °
Period: 98.6 minutes
Semi major axis: 7070 km
RCS: 0.0099 m2 (small)
Launch date: May 10, 1999
Source: People's Republic of China (PRC)
Launch site: Taiyaun Space Center, China (TSC)

Note: This is SATELLITE DEBRIS
Your satellite tracking list
EDRS-C
Track 1 satellite(s)




NASA's NSSDC Master Catalog

Two Line Element Set (TLE):
1 33730U 99025DHT 25183.85556625  .00005787  00000-0  11926-2 0  9990
2 33730  99.0694 226.0768 0043883 145.8414 214.5620 14.60312446933005
Source of the keplerian elements: AFSPC